Location: Unspecified
(43.4680°N, 87.1740°E)
Time: 05:33:49
(UTC+00:00)

ATLAS 2AS CENTAUR R/B - Pass Details

Date: 17 April 2021
Orbit: 949 x 1263 km, 63.7° (Epoch: 07 May)

Event Time Altitude Azimuth Distance (km) Brightness Sun altitude
Rises 13:28:55 0° 199° (SSW) 4,171 5.8 -6.4°
Reaches altitude 10° 13:31:43 10° 196° (SSW) 3,225 5.2 -6.8°
Maximum altitude 13:39:24 61° 119° (ESE) 1,418 3.1 -8.1°
Drops below altitude 10° 13:47:04 10° 42° (NE) 3,213 5.0 -9.4°
Sets 13:49:51 0° 39° (NE) 4,156 5.6 -9.9°
